Location: Oshawa
(43.9000°N, 78.8670°W)
Time: 03:53:31
(UTC-04:00)

Cosmos 1500 - Visible Passes

Search period start: 25 June 2018 00:00
Search period end: 05 July 2018 00:00
Orbit: 502 x 521 km, 82.5° (Epoch: 24 June)

Date Brightness Start Highest point End Pass type
(mag) Time Alt. Az. Time Alt. Az. Time Alt. Az.
25 Jun 6.2 04:37:22 10° ESE 04:39:19 14° E 04:41:17 10° NE visible
26 Jun 6.4 04:22:10 10° E 04:23:10 11° E 04:24:10 10° ENE visible
30 Jun 3.9 04:49:30 10° S 04:53:16 56° E 04:57:05 10° NNE visible
01 Jul 4.3 04:33:23 10° SSE 04:37:03 44° E 04:40:44 10° NNE visible
02 Jul 4.7 04:17:19 10° SSE 04:20:50 34° E 04:24:22 10° NNE visible
03 Jul 5.1 04:01:20 10° SSE 04:04:38 28° E 04:07:57 10° NNE visible
04 Jul 5.4 03:45:24 10° SE 03:48:26 22° E 03:51:29 10° NE visible
